TimeCDT,TemperatureF,Dew PointF,Humidity,Sea Level PressureIn,VisibilityMPH,Wind Direction,Wind SpeedMPH,Gust SpeedMPH,PrecipitationIn,Events,Conditions,WindDirDegrees,DateUTC
12:55 AM,78.8,73.4,83,29.95,10.0,Calm,Calm,-,N/A,,Clear,0,2013-09-09 05:55:00
1:55 AM,75.2,73.4,94,29.94,10.0,Calm,Calm,-,N/A,,Clear,0,2013-09-09 06:55:00
2:55 AM,75.2,73.4,94,29.95,10.0,Calm,Calm,-,N/A,,Clear,0,2013-09-09 07:55:00
3:15 AM,77.0,73.4,89,29.95,10.0,Calm,Calm,-,N/A,,Clear,0,2013-09-09 08:15:00
3:35 AM,75.2,73.4,94,29.95,10.0,Calm,Calm,-,N/A,,Clear,0,2013-09-09 08:35:00
3:55 AM,75.2,71.6,89,29.96,10.0,Calm,Calm,-,N/A,,Clear,0,2013-09-09 08:55:00
4:15 AM,75.2,71.6,89,29.96,10.0,Calm,Calm,-,N/A,,Clear,0,2013-09-09 09:15:00
4:35 AM,75.2,71.6,89,29.96,10.0,Calm,Calm,-,N/A,,Clear,0,2013-09-09 09:35:00
4:55 AM,73.4,71.6,94,29.97,10.0,Calm,Calm,-,N/A,,Clear,0,2013-09-09 09:55:00
5:15 AM,73.4,71.6,94,29.97,10.0,Calm,Calm,-,N/A,,Clear,0,2013-09-09 10:15:00
5:35 AM,73.4,71.6,94,29.97,10.0,Calm,Calm,-,N/A,,Clear,0,2013-09-09 10:35:00
5:55 AM,73.4,71.6,94,29.97,10.0,Calm,Calm,-,N/A,,Clear,0,2013-09-09 10:55:00
6:55 AM,73.4,71.6,94,29.99,10.0,Calm,Calm,-,N/A,,Clear,0,2013-09-09 11:55:00
7:55 AM,75.2,71.6,89,30.00,10.0,Calm,Calm,-,N/A,,Clear,0,2013-09-09 12:55:00
8:55 AM,82.4,71.6,70,30.01,10.0,Variable,3.5,-,N/A,,Mostly Cloudy,0,2013-09-09 13:55:00
9:55 AM,84.2,71.6,66,30.02,10.0,South,4.6,-,N/A,,Mostly Cloudy,170,2013-09-09 14:55:00
10:55 AM,84.2,71.6,66,30.04,10.0,SSE,4.6,-,N/A,,Mostly Cloudy,160,2013-09-09 15:55:00
11:55 AM,86.0,71.6,62,30.04,10.0,Variable,3.5,-,N/A,,Mostly Cloudy,0,2013-09-09 16:55:00
12:55 PM,89.6,73.4,59,30.03,10.0,SE,6.9,-,N/A,,Mostly Cloudy,140,2013-09-09 17:55:00
1:55 PM,91.4,73.4,55,30.01,10.0,SSE,8.1,-,N/A,,Mostly Cloudy,150,2013-09-09 18:55:00
2:55 PM,93.2,73.4,52,29.99,10.0,Variable,5.8,-,N/A,,Scattered Clouds,0,2013-09-09 19:55:00
3:55 PM,93.2,73.4,52,29.98,10.0,SSE,8.1,-,N/A,,Scattered Clouds,150,2013-09-09 20:55:00
4:55 PM,93.2,75.2,56,29.97,10.0,Variable,5.8,-,N/A,,Scattered Clouds,0,2013-09-09 21:55:00
5:55 PM,93.2,73.4,52,29.97,10.0,SSW,3.5,-,N/A,,Partly Cloudy,210,2013-09-09 22:55:00
6:55 PM,87.8,75.2,66,29.97,10.0,Calm,Calm,-,N/A,,Partly Cloudy,0,2013-09-09 23:55:00
7:55 PM,82.4,77.0,84,29.99,10.0,Calm,Calm,-,N/A,,Partly Cloudy,0,2013-09-10 00:55:00
8:55 PM,80.6,75.2,84,30.00,10.0,East,3.5,-,N/A,,Partly Cloudy,100,2013-09-10 01:55:00
9:55 PM,80.6,73.4,79,30.02,10.0,Calm,Calm,-,N/A,,Clear,0,2013-09-10 02:55:00
10:55 PM,78.8,73.4,83,30.03,10.0,Calm,Calm,-,N/A,,Clear,0,2013-09-10 03:55:00
11:55 PM,77.0,73.4,89,30.03,10.0,Calm,Calm,-,N/A,,Clear,0,2013-09-10 04:55:00